Regional Weather Roundup
Issued by NWS

Home | Current Version | Previous Version | Text Only | Print | Product List | Glossary On
Versions: 1 2 3 4 5 6 7 8 9 10 11 12 13 14 15 16 17 18 19 20 21 22 23 24 25 26 27 28 29 30 31 32 33 34 35 36 37 38 39 40 41 42 43 44 45 46 47 48 49 50
000
ASUS43 KDTX 310101
RWRMI
MICHIGAN HOURLY REGIONAL WEATHER ROUNDUP
NATIONAL WEATHER SERVICE DETROIT/PONTIAC MI
900 PM EDT WED JUL 30 2014

NOTE: "FAIR" INDICATES FEW OR NO CLOUDS BELOW 12,000 FEET WITH NO
SIGNIFICANT WEATHER AND/OR OBSTRUCTION TO VISIBILITY.

MIZ047>049-052>055-059>063-066>070-074>076-081>083-310200-
SOUTHEAST LOWER MICHIGAN

CITY           SKY/WX    TMP DP  RH WIND       PRES   REMARKS
ADRIAN         PTCLDY    67  61  81 N6        30.00R
ALMA           PTCLDY    65  49  56 NW5       29.97S
ANN ARBOR      PTCLDY    60  57  89 CALM      29.99S
BAD AXE        PTCLDY    60  55  82 CALM      29.97S
CARO           PTCLDY    63  58  85 CALM      29.95S
DETROIT CITY   LGT RAIN  69  57  65 CALM      29.98S
DETROIT        RAIN      64  59  83 CALM      29.99R
FLINT          PTCLDY    66  58  75 SW7       29.98R
GROSSE ILE     CLOUDY    64  61  88 NW6       29.98R
HILLSDALE      CLEAR     67  56  66 W5        30.01R
HOWELL         CLEAR     63  58  86 CALM      29.98S

CITY           SKY/WX    TMP DP  RH WIND       PRES   REMARKS
JACKSON        PTCLDY    65  58  78 CALM      29.99S
LAMBERTVILLE   PTCLDY    63  59  88 CALM      29.99R
LANSING        CLEAR     66  52  60 W8        29.98S
LAPEER         FAIR      62  55  80 CALM      29.98R
MASON          CLEAR     62  58  87 CALM      29.99S
MONROE         PTCLDY    63  59  88 CALM      29.97R
MT. CLEMENS    MOCLDY    62  61  98 S7        29.96S
PONTIAC        MOCLDY    65  58  78 CALM      29.98S
PORT HOPE        N/A     63  55  75 SE6       29.95F
PORT HURON     CLOUDY    64  59  82 CALM      29.98S
TRI CITIES     CLEAR     71  52  50 SW3       29.96S
TROY           CLOUDY    66  57  72 SW5       29.99S
SAGINAW HB     PTCLDY    68  54  60 SW6       29.96S
$$
MIZ043>046-050>051-056>058-064>065-071>073-077>080-310200-
SOUTHWEST LOWER MICHIGAN

CITY           SKY/WX    TMP DP  RH WIND       PRES   REMARKS
BATTLE CREEK   CLEAR     66  55  67 W7        30.01R
BENTON HARBOR  CLEAR     60  55  83 CALM      30.01S
BIG RAPIDS     PTCLDY    63  48  59 NW3       29.99S
COLDWATER      CLEAR     67  57  70 W6        30.01R
FREMONT        FAIR      63  47  57 W3        30.00R
HOLLAND        CLEAR     62  52  69 W5        30.02S
GRAND RAPIDS   MOCLDY    67  47  48 W8        30.00S
IONIA          FAIR      65  48  52 W6        29.98S
KALAMAZOO      CLEAR     66  55  67 NW9       30.01S
LUDINGTON      CLEAR     59  54  82 CALM      30.00S
MARSHALL       CLEAR     65  56  74 W3        29.99S
MOUNT PLEASANT PTCLDY    67  48  50 W5        29.97S
MUSKEGON       MOCLDY    62  49  62 W5        30.01S
SOUTH HAVEN    CLEAR     59  56  91 CALM      30.02R
$$
MIZ016>042-310200-
NORTHERN LOWER MICHIGAN

CITY           SKY/WX    TMP DP  RH WIND       PRES   REMARKS
ALPENA         MOCLDY    61  54  77 CALM      29.98S
BEAVER ISLAND  CLOUDY    57  56  99 SW3       29.97F
BELLAIRE       CLOUDY    59  53  80 CALM      29.98S
CADILLAC       PTCLDY    60  49  68 W3        29.99F
CHARLEVOIX     LGT RAIN  61  54  76 N3        30.01F
FRANKFORT      MOCLDY    62  53  71 CALM      29.98S
GAYLORD        CLOUDY    60  48  64 N3        29.99S
GRAYLING       MOCLDY    60  48  63 CALM      30.00S
HARBOR SPRINGS LGT RAIN  59  56  88 CALM      29.98S
HOUGHTON LAKE  MOCLDY    62  50  64 NW6       29.99R
MANISTEE       CLEAR     61  50  67 CALM      29.99F
OSCODA         CLOUDY    61  56  84 NE6       29.97S
PELLSTON       CLOUDY    59  56  89 NW3       29.98S
ROGERS CITY    CLOUDY    58  56  93 CALM      29.99S
TRAVERSE CITY  CLOUDY    65  52  62 CALM      29.97F
$$
MIZ007>008-015-310200-
EASTERN UPPER MICHIGAN

CITY           SKY/WX    TMP DP  RH WIND       PRES   REMARKS
KINROSS        CLOUDY    55  55 100 CALM      29.96F
MACKINAC ISLAN CLOUDY    59  55  84 W7        29.97S
NEWBERRY       CLOUDY    57  52  83 W8        29.96R
S. S. MARIE    CLOUDY    56  51  84 W3        29.95F
$$
MIZ004>006-011>014-085-310200-
CENTRAL UPPER MICHIGAN

CITY           SKY/WX    TMP DP  RH WIND       PRES   REMARKS
MANISTIQUE     PTCLDY    56  55  96 S3        29.96S
ESCANABA       CLOUDY    63  54  72 E5        29.95S
MENOMINEE      CLOUDY    61  55  82 N7        29.97F
SAWYER-GWINN   CLEAR     57  52  82 SW5       29.97S
$$
MIZ001>003-009>011-084-310200-
WESTERN UPPER MICHIGAN

CITY           SKY/WX    TMP DP  RH WIND       PRES   REMARKS
IRON MOUNTAIN  CLOUDY    60  56  86 SW3       29.96F
HOUGHTON       PTCLDY    61  55  81 SW5       29.94S
COPPER HARBOR    N/A     63  53  70 VRB3      29.93S
$$

ABBREVIATIONS USED IN REMARKS
   TC - TEMPERATURE IN CELSIUS
  WCI - WIND CHILL INDEX
   HX - HEAT INDEX
  VSB - VISIBILITY



USA.gov is the U.S. government's official web portal to all federal, state and local government web resources and services.